Location: Mentone
(34.5413°N, 85.5351°W)
Time: 08:32:21
(UTC-05:00)

Vanguard 1 - Visible Passes

Search period start: 21 October 2014 00:00
Search period end: 31 October 2014 00:00
Orbit: 652 x 3835 km, 34.2° (Epoch: 19 October)

Date Brightness Start Highest point End Pass type
(mag) Time Alt. Az. Time Alt. Az. Time Alt. Az.
21 Oct 14.1 18:09:11 10° WSW 18:15:27 15° SSW 18:23:32 10° S visible
26 Oct 12.6 05:54:03 10° S 05:57:55 14° SSE 06:01:02 10° ESE visible
27 Oct 12.1 06:13:57 10° SSW 06:19:36 22° SSE 06:23:42 10° ESE visible
29 Oct 12.8 04:36:28 10° S 04:41:36 15° SSE 04:45:34 10° ESE visible
30 Oct 12.4 04:56:04 10° SSW 05:03:25 22° SSE 05:08:27 10° ESE visible
